Theta_e
268 268 269 269 269 269 269 269 269 269 269 269 269 269 269 269 268 268 268 268 268 268 268 268 268 269 270 270 270 271 272 272 273 273 273 274 274 274 274 273 273 272 273 276 278 279 279 281 282 281 282 282 282 283 283 286 285 283 282 283 284 285 289
268 268 269 269 269 269 269 269 269 269 269 268 268 268 268 268 268 268 268 268 267 268 268 268 268 268 269 270 270 270 270 271 272 272 272 272 273 273 274 275 273 273 273 272 277 278 279 280 281 280 282 281 282 282 283 284 284 283 282 284 283 283 283
268 268 268 268 268 269 269 269 269 269 269 268 268 267 268 268 268 267 267 267 267 267 268 267 267 267 268 269 269 270 270 271 271 272 272 272 273 273 274 275 275 274 272 272 274 277 278 279 280 280 281 282 282 283 285 284 283 283 283 283 283 283 283
268 268 268 268 268 268 268 269 269 269 269 269 269 268 268 267 267 267 267 267 267 267 267 267 267 268 268 268 268 269 269 270 271 271 272 273 274 275 274 274 275 275 274 274 274 276 277 278 278 280 280 281 281 282 283 283 283 282 280 280 281 282 282
267 267 267 267 267 268 268 268 269 269 269 269 269 269 269 268 267 267 267 267 267 269 267 267 267 268 269 269 268 268 269 269 269 270 271 272 273 274 275 275 275 274 275 274 274 275 278 279 279 280 281 281 280 280 280 279 280 281 282 281 280 279 282
266 267 267 267 267 268 268 268 269 269 269 269 269 269 269 269 268 268 267 267 267 267 267 267 267 268 269 269 268 268 269 269 268 269 270 270 271 272 273 274 275 276 275 274 274 275 276 279 279 279 279 279 279 279 278 278 278 278 277 279 280 280 280
266 267 267 267 267 267 267 268 268 268 269 269 269 269 268 268 268 268 268 268 267 267 267 267 267 267 268 267 268 268 269 269 270 270 269 270 270 271 271 272 274 276 276 276 275 275 276 277 280 280 279 280 279 279 279 279 278 278 278 278 279 280 280
265 266 267 267 267 267 268 268 268 268 269 269 269 269 269 268 268 268 268 268 268 268 268 268 268 268 268 268 268 268 268 270 271 272 272 273 272 271 272 272 274 275 275 275 276 276 275 276 277 279 280 281 279 277 277 278 278 278 278 279 278 279 281
265 265 265 266 267 267 268 268 268 268 269 269 269 269 269 269 269 269 268 268 269 269 269 269 269 268 268 269 271 272 272 272 272 271 270 272 273 273 274 274 275 275 274 274 275 276 277 276 277 277 278 277 276 277 277 279 278 278 279 280 280 279 277
264 265 265 265 266 267 267 268 268 270 273 274 271 270 270 270 270 269 269 269 269 269 269 269 269 270 271 271 272 272 273 274 274 275 273 272 273 273 273 273 273 273 274 274 275 275 276 276 277 278 278 278 278 279 279 278 276 277 279 278 276 278 278
263 264 265 265 265 266 267 268 269 272 274 276 277 275 273 271 270 270 270 269 269 269 269 270 270 270 271 271 272 272 273 274 275 275 275 276 276 276 274 272 272 273 274 274 274 275 276 276 276 277 278 278 278 279 279 278 278 278 278 276 276 276 279
263 263 264 265 266 267 267 268 271 274 275 277 277 278 275 275 273 271 270 270 270 270 270 270 270 270 270 270 271 271 271 272 274 275 276 276 276 277 278 278 275 274 274 274 274 275 276 277 277 278 278 278 278 278 278 278 278 278 278 276 276 277 277
263 263 264 265 266 266 268 268 272 275 276 277 278 279 278 276 275 274 273 271 271 270 270 270 270 270 270 271 273 272 271 270 270 273 275 275 276 276 277 277 278 279 277 276 275 275 276 277 278 278 278 279 279 280 279 279 278 278 277 277 277 278 279
262 263 264 265 266 267 267 268 272 275 277 278 279 279 279 277 277 276 275 274 272 271 271 271 271 270 270 271 271 272 271 271 270 270 269 270 271 272 274 276 278 278 279 279 277 277 276 278 279 279 280 281 281 281 279 280 279 279 278 277 278 280 280
262 263 264 265 266 267 268 268 274 276 277 279 279 280 280 278 278 277 277 276 275 273 272 272 272 272 271 272 271 272 272 271 271 270 269 268 269 270 271 272 273 274 275 276 277 277 278 279 280 280 282 282 282 282 282 282 281 281 280 280 281 279 279
264 263 264 265 266 267 268 269 275 277 278 279 280 280 279 278 278 277 277 277 277 275 274 274 273 273 272 272 272 273 276 275 272 271 269 268 268 269 270 271 274 276 277 277 277 278 279 280 281 283 283 283 283 283 283 283 283 282 281 280 279 279 280
263 264 264 265 266 267 269 270 273 277 278 279 281 280 279 278 278 277 277 277 277 277 276 275 274 274 274 273 273 275 276 277 277 272 270 268 268 269 269 270 273 277 279 280 281 282 283 284 284 285 286 286 286 284 282 281 280 280 282 280 278 278 279
263 264 265 266 267 268 269 270 273 277 279 280 281 281 279 279 277 277 277 276 277 277 277 277 278 277 275 275 274 277 278 278 277 274 271 270 269 268 269 271 273 275 277 281 282 283 283 283 284 284 285 286 286 285 285 281 279 281 282 280 280 278 279
263 264 266 267 267 270 270 270 273 277 279 280 281 280 278 277 276 276 276 277 277 277 278 278 279 280 279 278 277 279 279 279 278 275 274 273 271 270 270 272 274 275 276 277 278 279 280 281 282 283 283 283 284 285 284 282 282 282 280 279 280 280 278
264 264 265 266 267 269 270 271 274 276 278 280 280 280 279 278 277 276 276 277 277 277 277 278 278 279 280 281 281 281 281 280 280 277 276 276 274 273 273 275 276 277 277 277 277 277 278 279 280 280 280 280 281 282 282 282 281 282 282 281 280 280 279
263 264 265 266 268 270 272 274 274 274 278 279 279 280 279 277 277 277 277 277 277 277 277 277 277 276 279 280 281 282 282 282 281 280 278 277 275 276 277 279 277 277 278 277 277 278 278 279 279 279 278 278 278 279 279 280 281 282 282 282 280 279 279
263 264 265 267 269 271 272 273 274 273 276 278 278 278 279 277 277 278 277 276 276 277 277 277 277 277 279 280 281 282 282 282 282 282 279 278 280 280 280 278 278 277 277 277 277 277 278 278 278 277 276 276 277 278 279 279 280 281 282 283 282 281 280
263 264 265 267 270 271 270 271 272 274 274 276 277 277 278 279 278 279 277 275 275 276 277 278 278 279 280 281 282 282 283 283 282 282 281 281 281 281 280 279 278 278 277 276 276 276 276 276 276 275 276 276 277 278 279 279 280 281 282 283 283 283 282
264 264 265 267 269 269 268 270 271 272 274 274 276 276 277 278 278 278 276 276 275 276 277 277 277 278 280 281 281 281 281 281 281 281 282 282 281 280 280 279 278 277 277 276 276 275 275 275 276 276 276 277 278 279 279 279 280 280 281 282 281 279 276
264 264 265 267 268 268 268 268 270 270 272 274 274 276 276 277 277 277 277 275 275 275 276 278 279 279 280 280 281 281 281 280 280 281 282 282 281 281 279 278 278 278 277 276 275 275 275 275 277 278 279 280 279 279 278 278 278 277 277 276 275 273 272
263 265 266 267 268 267 267 267 268 269 270 272 273 274 275 276 276 276 277 276 275 277 278 278 278 279 279 279 279 279 278 279 279 280 279 279 280 280 279 279 278 278 278 277 277 277 276 277 277 278 279 280 279 278 277 277 277 276 274 275 275 274 273
264 265 265 268 268 267 267 267 267 268 269 270 272 272 273 274 274 276 276 275 275 276 275 276 277 277 277 277 278 278 278 277 278 276 275 275 274 274 276 278 279 279 278 278 277 277 278 278 278 279 278 278 278 278 278 279 277 276 275 275 276 276 272
264 264 267 268 267 267 267 267 267 268 268 270 271 272 272 273 273 273 274 274 275 275 276 276 276 274 274 274 274 273 273 273 273 273 273 273 273 272 273 274 275 276 276 278 278 279 280 280 280 279 279 279 279 279 278 278 277 276 275 275 275 274 272
265 268 269 268 267 267 266 267 267 268 272 272 273 272 272 272 272 273 274 275 276 275 274 273 271 270 270 270 270 270 270 270 270 271 271 271 272 271 271 271 270 270 270 271 273 274 276 278 280 279 280 279 279 279 278 278 277 277 276 275 275 275 273
270 269 269 268 268 268 267 266 268 272 273 273 274 274 274 274 275 276 275 275 275 273 270 269 267 267 267 268 268 268 268 268 268 269 269 270 271 271 270 270 269 269 269 270 271 272 273 274 276 278 278 278 278 279 278 277 278 276 276 274 274 274 272
271 271 270 268 267 268 270 270 271 272 272 273 273 273 273 274 275 275 274 274 271 269 268 267 267 267 268 268 267 267 267 268 268 268 268 268 269 269 269 269 269 269 269 269 269 270 271 272 274 275 278 278 278 277 276 276 277 276 275 275 274 274 271
270 270 270 269 269 267 267 269 271 271 272 272 272 272 272 273 274 273 273 272 271 267 266 266 266 266 266 266 266 266 267 267 267 267 267 267 267 268 269 269 268 269 267 267 268 269 270 271 272 273 276 278 278 277 276 275 275 275 274 274 274 274 272
268 268 268 268 268 269 269 269 270 270 271 271 271 271 271 271 272 272 271 269 266 266 266 265 265 265 265 265 264 265 265 265 266 266 266 266 267 267 268 268 269 269 268 267 268 268 268 269 270 271 272 275 277 276 275 275 275 275 274 274 273 272 271
266 267 267 267 267 267 269 269 269 270 270 270 269 269 269 268 267 269 269 266 262 262 262 264 265 265 264 264 264 264 264 264 264 265 265 265 266 266 267 268 268 268 267 267 267 267 268 268 269 270 270 272 276 276 276 275 274 274 274 273 273 271 270
259 262 264 263 263 266 268 268 268 268 268 268 268 268 267 265 261 260 260 261 261 261 260 261 261 262 263 263 263 263 263 262 263 263 263 263 264 265 266 267 267 267 266 266 266 266 266 268 268 269 270 271 274 275 275 275 274 274 274 273 272 271 269
256 257 261 263 263 264 266 267 267 267 267 267 267 266 264 258 258 258 258 258 259 259 259 259 260 260 261 262 262 262 261 261 261 262 262 262 263 264 265 266 266 267 266 265 265 265 266 267 268 269 269 270 272 275 275 275 274 274 274 273 272 271 269
Wind_Speed
10 10 11 12 12 12 12 12 11 9 9 9 9 8 8 9 9 10 9 9 10 10 9 9 9 10 9 7 8 8 7 8 8 9 7 6 5 6 5 4 5 9 11 9 6 8 9 10 10 12 9 8 6 7 4 4 4 4 4 4 5 6 7
9 10 12 12 13 13 13 13 13 12 10 9 9 10 8 9 9 10 10 9 9 9 7 7 9 9 9 8 9 9 10 9 9 9 9 9 7 7 8 7 7 8 9 11 7 9 6 8 8 11 13 12 9 8 5 7 6 4 4 6 6 6 6
11 12 12 13 13 13 13 13 13 11 10 9 10 10 9 9 9 10 10 9 9 9 8 9 10 10 9 9 10 8 6 6 8 8 9 10 9 9 10 10 8 8 10 11 10 9 11 7 6 9 11 13 9 7 8 8 7 7 6 6 6 6 5
12 12 12 13 13 13 13 13 13 12 10 10 11 10 10 9 9 10 10 10 10 9 9 9 9 9 9 10 11 11 10 8 7 6 6 7 7 9 12 12 11 10 9 11 12 11 10 8 7 8 8 9 7 7 6 6 7 6 5 5 5 6 6
10 12 12 12 13 13 13 13 13 13 13 11 10 11 10 10 10 10 10 10 10 10 11 11 11 11 9 7 7 7 8 8 9 8 7 8 8 9 10 8 9 11 12 12 14 12 11 9 7 7 8 8 9 7 6 5 6 7 7 7 5 4 4
10 11 12 12 13 13 14 13 13 13 13 13 13 11 10 9 9 10 10 10 10 11 10 11 11 11 11 11 11 9 7 6 8 7 9 9 10 10 10 11 12 12 13 13 13 13 12 10 10 9 8 7 8 9 7 5 5 5 5 6 7 6 5
11 11 12 13 13 13 13 13 13 13 13 13 12 11 11 11 11 11 10 9 10 11 11 12 12 12 12 13 12 11 10 9 9 9 10 10 11 11 13 14 13 13 14 14 13 13 12 12 10 8 9 6 5 6 7 7 6 8 5 6 6 8 5
12 12 12 12 12 12 12 12 12 12 12 11 11 11 11 11 11 11 11 11 11 10 11 11 12 13 13 13 13 12 12 12 11 10 11 10 11 13 14 15 14 13 12 11 11 12 11 10 11 9 8 7 4 5 6 5 7 10 7 7 6 8 9
12 13 13 13 12 12 11 11 11 10 10 11 12 12 12 12 12 12 11 11 12 12 12 12 12 12 12 13 18 21 19 18 16 12 12 12 10 9 10 11 12 10 8 8 9 10 10 11 11 12 11 9 7 9 11 8 6 7 7 7 8 6 5
11 12 13 13 12 12 11 11 10 14 22 20 13 10 10 10 11 12 12 12 12 12 13 14 13 14 21 22 24 25 27 27 27 28 20 13 10 11 11 10 10 10 9 8 9 9 10 10 10 8 7 8 8 9 9 8 4 8 9 6 5 7 6
11 11 11 12 12 13 11 10 11 22 23 23 24 16 11 10 11 11 12 13 13 13 13 13 14 14 17 21 23 23 28 27 28 28 30 31 28 21 14 10 11 11 9 9 9 9 9 8 9 10 9 9 9 8 9 9 8 9 8 6 7 10 7
11 11 11 10 11 12 11 11 17 22 23 23 23 20 13 10 11 11 11 12 13 13 13 13 13 13 12 13 16 16 17 22 27 28 29 30 29 29 30 26 16 11 10 10 9 10 10 9 10 10 9 9 8 8 8 8 8 8 9 8 8 7 9
11 11 10 11 12 13 12 11 19 22 24 23 24 23 19 9 10 10 11 12 14 14 13 12 12 12 12 13 23 19 17 16 16 24 30 29 29 29 30 28 30 27 16 10 11 11 11 11 10 10 8 7 7 8 9 9 8 8 8 8 8 10 9
11 11 11 11 12 12 12 12 17 23 23 23 24 24 20 11 10 11 12 13 13 13 14 14 13 12 12 13 13 14 16 15 16 15 15 16 16 15 20 26 29 28 27 22 14 12 12 12 10 10 10 6 4 6 8 9 9 8 8 8 10 12 9
11 10 11 11 11 11 13 12 21 22 24 23 24 24 21 10 10 9 10 11 12 13 14 14 13 13 14 13 12 13 16 15 16 14 13 14 14 15 15 14 14 14 12 12 12 13 14 14 14 12 12 7 5 5 5 6 7 8 9 9 7 1 2
9 11 11 11 12 12 13 13 22 22 23 24 23 25 13 9 9 9 9 9 10 11 11 12 13 13 14 14 13 17 25 21 15 14 14 14 14 13 13 14 16 20 20 16 13 12 13 13 14 15 12 10 8 7 8 6 6 4 4 5 6 7 6
10 10 11 13 12 12 13 13 18 23 24 24 25 19 10 10 9 9 9 9 9 9 10 11 12 12 12 13 13 19 24 24 22 13 15 14 14 13 12 12 13 22 27 28 28 27 26 26 26 24 22 20 20 13 9 6 7 7 5 6 8 7 6
10 11 10 12 12 12 12 13 17 24 23 23 24 18 9 7 7 7 8 8 9 8 9 11 19 16 13 13 13 21 23 24 20 14 14 14 14 15 14 13 12 11 14 25 27 28 27 25 23 24 22 21 20 20 13 8 9 7 5 7 7 6 6
10 11 11 11 12 18 17 13 15 20 21 23 20 16 8 6 3 4 6 7 8 8 8 9 11 18 16 13 15 23 23 23 20 14 13 14 13 14 16 14 12 13 12 11 11 12 13 13 16 14 11 10 15 15 12 7 8 6 7 7 7 7 6
10 11 11 11 11 10 12 12 9 13 23 20 20 21 13 6 5 4 6 6 6 7 8 8 8 10 15 19 22 23 23 22 23 15 13 12 11 13 15 12 13 13 10 11 11 12 11 11 10 9 8 8 8 9 7 7 8 8 8 8 7 7 8
10 11 11 11 11 10 9 6 9 12 21 18 19 21 18 7 7 7 6 5 6 6 7 7 6 5 11 15 17 20 23 23 22 21 13 13 13 14 11 10 9 13 16 12 11 11 10 9 9 8 7 7 8 8 7 7 8 9 9 9 8 8 8
10 10 10 10 10 8 5 6 11 12 16 18 19 20 21 11 8 9 8 8 6 7 7 6 6 5 9 14 16 19 19 22 21 24 13 13 19 21 21 13 10 10 9 9 9 9 9 9 8 8 8 8 8 8 9 8 8 8 9 9 9 9 9
10 9 9 10 8 4 4 6 7 15 14 16 19 20 19 20 14 16 9 8 8 8 7 6 6 7 12 16 17 17 15 17 20 16 12 20 22 22 22 16 9 8 7 8 9 9 9 9 8 8 9 8 8 8 8 7 7 8 8 8 8 9 8
8 8 9 9 9 4 4 4 5 10 16 14 18 19 20 19 19 17 9 8 7 8 8 7 6 8 15 14 11 10 9 9 9 6 13 19 21 21 17 10 9 9 9 9 8 9 9 10 9 8 8 9 9 8 6 8 8 8 9 9 8 7 4
8 8 8 9 7 4 5 4 5 6 10 16 17 18 18 19 20 18 16 9 6 8 8 11 15 16 15 14 12 11 8 6 8 11 11 13 18 17 9 9 8 8 8 9 10 10 10 9 9 9 10 8 6 6 6 5 4 2 1 2 4 4 3
8 8 8 9 5 5 5 6 5 6 7 10 12 13 17 19 18 17 16 13 10 16 18 17 16 16 14 10 8 5 4 4 2 7 10 10 6 10 9 9 8 8 8 8 9 9 10 10 9 8 8 8 6 6 7 6 5 5 4 5 6 5 1
9 9 9 7 4 4 5 6 5 6 7 8 9 8 10 11 10 14 14 8 7 9 9 10 10 6 9 7 9 9 8 7 7 6 5 4 5 6 4 1 5 8 10 10 9 9 9 10 9 8 7 7 7 8 6 7 7 7 7 6 6 6 5
8 10 8 4 4 4 5 5 5 6 8 8 9 9 8 8 8 9 7 6 6 8 8 5 4 6 5 5 5 6 5 6 5 5 4 4 5 4 3 4 4 4 2 2 3 5 7 8 8 8 9 8 8 8 7 7 7 8 7 6 6 5 5
9 7 3 4 4 5 5 5 6 7 11 13 15 12 9 8 8 8 7 6 11 7 4 4 5 5 6 6 6 5 5 5 6 6 6 6 5 4 4 5 5 4 3 3 3 4 4 4 5 7 7 7 7 8 8 7 7 7 7 6 6 8 6
7 6 5 5 4 4 6 6 7 15 19 18 17 17 17 15 18 16 5 8 8 5 4 4 4 5 4 5 5 5 6 6 5 5 6 5 6 5 4 4 4 3 4 4 3 3 4 4 5 4 5 6 7 7 6 8 9 7 7 8 7 7 6
12 15 15 10 6 6 12 13 15 17 17 17 16 17 16 17 13 11 11 9 5 6 5 4 4 5 5 5 5 5 5 6 5 6 6 6 5 4 5 6 5 5 5 5 5 5 4 5 4 6 5 6 7 7 7 6 6 6 7 8 8 7 6
14 15 15 14 12 9 6 11 15 16 15 15 16 16 15 13 13 14 13 11 9 5 5 5 5 5 5 5 6 6 5 5 5 5 5 5 5 5 5 5 5 4 4 4 4 5 5 5 5 5 6 6 7 7 7 7 7 7 8 7 6 7 7
13 15 15 15 15 15 14 14 14 15 14 15 15 16 13 10 12 16 15 12 8 5 4 4 4 4 5 5 5 5 5 5 6 5 5 5 5 5 6 5 4 5 4 3 4 4 4 5 5 5 7 7 6 7 8 8 9 8 8 8 7 6 6
13 15 16 15 16 16 17 15 14 14 14 15 15 15 13 10 7 14 17 14 7 6 5 5 5 5 5 5 5 5 5 5 6 6 5 5 5 5 5 5 4 4 4 4 4 4 4 5 5 5 5 6 6 7 8 9 9 8 8 8 8 8 7
8 12 15 13 12 15 17 16 14 13 14 15 16 16 13 11 9 8 8 9 7 6 6 6 6 6 6 5 5 5 5 6 6 6 6 5 5 5 5 5 5 5 4 5 5 4 5 5 5 5 5 6 7 7 8 8 9 9 10 10 8 8 7
5 6 9 16 14 16 17 17 15 13 14 15 17 17 15 9 8 6 6 6 6 6 6 6 6 6 6 6 5 5 6 5 5 6 6 6 6 6 6 5 5 5 5 5 5 5 5 5 5 5 5 5 7 9 10 9 9 9 9 9 9 9 9
Wind_Direction
290 290 289 288 286 285 284 282 280 272 267 263 263 260 258 259 254 253 255 255 258 260 266 270 276 279 277 274 266 263 266 272 280 286 278 271 275 276 267 250 257 269 279 276 270 273 276 287 295 295 293 287 285 289 277 249 252 253 237 233 231 233 242
292 292 288 287 285 284 283 282 279 278 274 268 264 260 259 259 258 257 255 253 252 253 256 259 263 267 272 274 267 260 259 257 263 268 278 278 275 279 283 275 272 274 273 279 277 274 267 263 262 270 278 274 270 273 283 283 272 253 237 239 240 240 242
292 291 289 285 283 282 281 280 279 275 267 262 260 260 257 254 255 256 257 255 254 254 254 258 260 263 264 266 269 271 270 262 251 249 254 264 268 271 272 273 265 269 273 277 272 269 268 255 246 246 259 266 257 249 255 261 261 251 240 232 230 233 240
292 290 289 287 285 282 279 278 278 276 269 264 258 254 252 250 249 250 250 252 253 252 254 257 260 259 258 255 257 261 261 264 271 270 262 261 266 265 262 259 262 259 267 271 275 262 264 255 246 253 251 255 254 241 244 240 255 264 269 257 239 228 238
290 289 286 285 283 283 281 279 278 277 275 271 266 261 254 248 245 243 243 244 245 245 246 248 254 259 260 260 259 255 253 251 254 258 263 264 261 260 262 258 250 253 252 257 259 264 257 260 250 245 247 239 243 251 241 245 241 246 247 254 251 241 237
287 286 284 281 283 282 281 279 275 273 271 270 267 262 259 255 249 245 243 242 240 241 241 244 247 251 254 258 260 259 255 247 246 247 250 255 257 260 264 262 255 248 246 246 249 252 260 253 255 252 248 239 229 233 246 253 259 260 253 254 270 254 237
287 284 284 284 283 281 280 279 275 272 269 264 260 257 255 253 252 252 249 243 241 238 238 239 241 243 245 249 251 255 256 256 250 243 246 246 249 251 252 255 258 255 249 242 244 246 246 251 245 243 253 249 232 226 222 232 246 255 242 232 230 265 259
291 289 286 284 281 279 278 274 272 269 268 263 257 254 251 248 249 249 247 247 244 241 239 237 238 239 239 240 243 246 249 249 254 254 250 242 239 238 241 246 247 251 251 252 250 248 246 238 248 247 250 254 254 267 265 235 229 245 246 247 235 227 246
291 290 288 285 282 279 273 267 267 265 260 256 255 249 249 247 245 245 246 244 244 241 242 242 241 239 238 236 238 239 242 241 241 244 250 253 256 257 252 244 239 244 255 265 267 264 246 236 233 236 238 234 225 232 243 241 209 242 242 244 251 256 224
285 284 283 284 282 277 274 271 268 268 269 266 258 243 238 235 235 232 236 240 242 241 237 237 239 240 239 241 242 244 246 247 245 243 241 242 243 243 246 250 250 247 249 257 261 263 263 238 233 233 228 234 232 235 244 247 208 229 242 241 262 275 240
283 281 280 279 279 278 272 263 265 270 273 274 272 267 250 232 229 222 225 232 235 241 238 237 235 236 238 241 244 246 246 246 245 245 246 245 243 241 240 242 244 248 249 255 260 268 273 267 251 242 237 235 237 228 230 228 218 226 234 220 230 252 271
281 279 280 280 279 277 274 272 272 276 278 279 279 276 264 244 235 227 220 224 230 234 236 238 235 235 233 233 233 234 240 244 246 246 246 245 246 247 246 244 242 242 244 245 255 259 258 262 260 249 227 228 228 233 232 228 217 217 221 218 222 234 244
285 283 282 280 281 280 278 275 279 283 284 283 283 282 279 257 242 233 229 224 228 230 232 233 235 237 232 233 234 234 233 232 238 245 247 248 248 247 246 247 248 247 247 249 250 253 259 259 268 265 251 231 228 221 227 222 220 221 221 213 218 228 241
284 285 282 281 280 280 279 275 280 284 286 287 286 285 283 266 252 239 231 228 223 227 231 231 233 237 238 232 227 227 229 226 229 232 239 243 246 249 250 249 249 250 250 250 252 255 257 260 254 259 261 249 232 231 224 221 221 217 214 212 219 225 227
290 285 285 284 283 283 283 278 283 287 289 291 290 290 288 272 261 249 240 232 226 223 228 230 231 234 240 239 225 224 222 222 225 225 229 234 237 238 242 243 246 247 249 251 252 254 256 259 258 256 258 243 207 213 222 214 213 210 210 220 235 287 157
285 287 286 285 285 285 283 283 289 294 295 297 298 297 291 272 255 252 247 240 228 224 225 226 228 232 237 241 235 230 228 225 219 219 224 228 232 235 237 240 241 244 245 244 244 243 246 249 253 250 246 240 232 228 233 223 227 223 202 211 221 229 216
291 290 288 288 286 285 286 287 292 297 300 303 304 301 279 262 246 239 241 243 240 232 225 224 225 228 233 239 237 236 231 229 225 211 218 223 228 230 232 239 239 243 246 248 248 246 244 246 249 250 247 246 241 232 216 209 218 215 203 201 210 221 221
288 285 284 286 288 286 289 290 292 298 303 310 316 335 315 280 248 231 241 243 240 237 233 228 225 222 227 233 236 242 235 229 224 217 211 214 222 227 231 237 237 240 245 247 249 249 248 248 250 250 246 246 246 242 226 191 213 208 204 218 220 224 220
283 286 285 284 283 288 289 285 289 297 314 320 337 348 344 336 283 256 253 255 254 246 241 238 243 239 235 232 237 243 238 229 221 218 212 207 212 221 227 230 228 233 235 237 243 249 251 255 253 253 246 245 248 246 242 207 211 212 212 225 228 222 222
284 286 286 285 282 278 283 282 291 313 320 330 345 348 352 348 342 294 273 271 270 264 251 243 234 245 256 259 255 251 246 235 224 215 214 211 213 215 223 217 222 225 226 232 232 239 243 245 246 248 246 245 244 243 234 222 208 210 211 219 227 221 213
286 286 284 284 283 282 278 296 322 319 324 337 347 347 349 341 344 341 330 320 316 297 275 256 244 238 259 260 264 265 255 243 232 226 213 211 217 221 224 217 215 224 222 229 233 238 240 240 241 242 239 238 236 235 230 223 218 214 214 214 219 221 222
285 285 285 286 287 277 299 324 328 324 326 338 345 345 344 343 340 345 345 333 320 319 309 275 259 247 260 267 272 276 267 254 244 231 222 215 219 223 222 225 219 217 216 224 230 232 235 235 235 236 236 235 234 232 229 219 219 218 217 218 219 218 221
283 286 290 291 288 278 313 324 326 331 329 335 341 341 341 343 344 346 351 337 323 323 314 319 305 285 283 278 277 279 267 256 258 254 227 223 225 225 222 226 222 216 212 221 229 230 232 232 230 231 231 231 233 233 226 219 216 218 217 220 223 225 227
286 290 289 295 293 292 311 314 327 328 327 331 336 337 339 339 340 342 342 338 324 321 313 315 314 312 318 319 310 299 297 302 298 266 238 229 225 225 226 218 215 218 218 221 226 228 232 233 228 226 231 230 229 231 217 215 216 215 213 214 212 211 212
288 288 292 296 294 306 311 317 323 318 321 330 331 334 335 335 334 337 338 333 323 310 309 312 317 320 318 316 317 322 323 328 327 307 275 244 225 221 211 212 216 218 214 220 223 225 230 235 232 225 230 233 225 224 215 216 215 207 161 125 110 100 79
290 289 294 289 288 311 312 321 319 318 324 324 323 325 329 330 330 329 331 331 325 322 319 315 317 317 315 315 320 318 304 282 310 4 18 12 292 216 204 203 215 223 221 219 220 223 228 235 236 233 234 232 220 209 210 187 178 156 151 158 153 142 95
287 285 284 282 311 306 320 320 316 320 324 319 315 318 320 323 322 324 325 322 312 314 305 302 311 347 4 5 9 18 26 30 23 27 15 22 32 26 15 296 226 220 220 224 225 227 228 231 232 232 230 225 211 213 204 181 177 184 185 177 180 174 164
278 279 279 305 316 323 326 319 319 326 319 316 317 317 316 313 316 315 302 305 312 301 304 316 0 13 8 3 15 13 8 9 20 29 20 16 28 31 20 10 347 351 330 315 284 257 241 234 227 221 220 215 207 210 195 182 181 184 183 180 161 156 186
256 272 330 333 335 337 324 325 324 316 318 318 319 318 321 317 313 304 286 317 330 335 4 9 15 19 15 20 15 14 8 4 8 8 8 10 25 25 12 16 25 23 5 327 322 305 306 295 255 222 212 209 210 208 194 181 185 184 174 171 175 190 174
321 352 1 346 342 335 330 323 315 320 324 323 323 326 325 322 310 304 345 357 11 32 25 22 29 20 18 19 13 12 11 10 4 8 7 7 5 4 7 21 16 13 349 339 322 311 301 293 295 271 212 203 212 212 195 184 181 178 169 166 183 188 183
355 357 356 350 339 338 336 326 325 328 327 330 334 334 334 323 339 32 31 33 48 40 31 9 25 17 17 29 23 20 12 12 5 9 6 2 354 353 5 6 0 356 351 348 334 323 312 302 286 278 256 218 211 204 191 187 186 169 169 182 184 185 175
2 358 353 350 347 345 327 331 334 334 336 340 342 341 339 333 20 31 36 37 57 64 42 22 30 30 18 15 22 17 10 10 7 5 360 352 354 356 354 1 355 349 345 330 329 319 314 306 298 284 281 251 223 199 189 182 175 174 182 187 186 188 174
360 355 352 352 351 348 344 343 344 343 348 350 350 351 349 351 29 38 34 40 39 34 42 36 28 37 33 24 26 13 5 5 2 358 354 348 346 342 340 338 340 340 331 328 315 317 307 305 295 287 282 278 245 206 194 187 184 185 182 180 176 172 170
358 355 354 353 352 345 349 351 352 356 359 2 3 4 7 17 28 43 39 43 39 25 12 4 23 23 28 21 24 15 8 4 360 357 346 343 341 336 328 324 322 326 325 322 320 310 300 295 289 281 281 275 253 216 203 193 189 177 173 178 183 175 171
349 352 355 353 349 342 352 356 359 7 11 14 17 17 18 32 32 25 11 21 24 21 15 13 10 3 7 8 15 9 6 359 351 348 343 338 334 329 324 324 328 324 318 316 312 308 299 294 295 289 271 274 263 221 205 200 188 184 182 180 176 168 160
341 330 338 351 348 346 356 359 7 14 19 23 27 28 29 40 32 26 23 19 12 12 8 8 6 358 350 354 4 4 358 351 344 345 342 333 331 327 326 322 330 333 329 318 306 293 301 304 298 292 291 282 273 231 207 196 195 188 188 180 173 169 165